[[{"header":{"parameterUnit":"m.s-1","parameterCategory":2,"la1":30.2991,"la2":30.254,"lo1":-89.0895,"lo2":-89.0444,"dy":0.0017,"dx":0.0017,"nx":28,"ny":28,"refTime":"2024-05-25T21:00:00:Z","depth":"0","parameterNumber":2,"parameterNumberName":"U-component_of_CURRENTS"},"data":[0,0,0,0,0,0,0,0,0,0,0,0,0,0,0,0,0,0,0,0,0,0,0,0,0,0,0,0,0,0,0,0,0,0,0,0,0,0,0,0,0,0,0,0,0,0,0,0,0,0,0,0,0,0,0,0,0,0,-0.2178,-0.2178,0,-0.2202,-0.2202,-0.2203,-0.2178,-0.2177,-0.2177,-0.2176,-0.2143,-0.2142,-0.2142,0,0,0,0,0,0,0,0,0,0,0,0,0,-0.2109,-0.211,-0.2178,-0.2178,-0.2179,-0.2202,-0.2203,-0.2203,-0.2178,-0.2177,-0.2176,-0.2176,-0.2143,-0.2142,-0.2142,0,0,0,0,0,0,0,0,0,0,0,0,0,-0.2134,-0.211,-0.2178,-0.2171,-0.2171,-0.2202,-0.2203,-0.2203,-0.2178,-0.2177,-0.2176,-0.2175,-0.2143,-0.2142,-0.2142,-0.2162,0,0,-0.2141,-0.2141,0,0,0,0,0,0,0,0,-0.2133,-0.2136,-0.2172,-0.2172,-0.2172,-0.2188,-0.2166,-0.2187,-0.2179,-0.2173,-0.2176,-0.2175,-0.2155,-0.2154,-0.2158,-0.2161,-0.2159,-0.2141,-0.2141,-0.2141,-0.2141,0,0,0,0,0,0,0,-0.2131,-0.2135,-0.2185,-0.2172,-0.2172,-0.2167,-0.2169,-0.217,-0.2167,-0.2173,-0.2172,-0.2179,-0.2154,-0.2158,-0.2157,-0.2159,-0.2141,-0.2141,-0.2141,-0.2141,-0.2188,-0.219,0,0,0,0,0,0,-0.2135,-0.2134,-0.2184,-0.2186,-0.2152,-0.217,-0.2172,-0.2182,-0.2168,-0.2166,-0.218,-0.2178,-0.2159,-0.2157,-0.2155,-0.2189,-0.2141,-0.2141,-0.214,-0.2187,-0.2189,-0.219,0,0,0,0,0,0,-0.2133,-0.2139,-0.2183,-0.2162,-0.2168,-0.2172,-0.2184,-0.2183,-0.2183,-0.2174,-0.217,-0.218,-0.2158,-0.2156,-0.2164,-0.2187,-0.214,-0.214,-0.2185,-0.2187,-0.2189,-0.2249,0,0,0,0,0,0,-0.2131,-0.2139,-0.2141,-0.2163,-0.2169,-0.2207,-0.2185,-0.2184,-0.2191,-0.2188,-0.2173,-0.2169,-0.2157,-0.2164,-0.2163,-0.2185,-0.214,-0.2183,-0.2186,-0.2189,-0.2245,-0.2253,-0.2259,0,0,0,0,0,-0.2129,-0.2136,-0.2141,-0.2146,-0.2174,-0.2208,-0.2211,-0.2208,-0.2192,-0.2201,-0.2192,-0.217,-0.2181,-0.2165,-0.2164,-0.2186,-0.2182,-0.2185,-0.2189,-0.2242,-0.2251,-0.2259,0,0,0,0,0,0,-0.2107,-0.2135,-0.214,-0.2155,-0.2184,-0.2205,-0.2205,-0.2211,-0.2212,-0.22,-0.2187,-0.2183,-0.2199,-0.2188,-0.2171,-0.221,-0.2179,-0.2182,-0.222,-0.2228,-0.2235,-0.2242,-0.214,0,0,0,0,0,-0.2107,-0.2114,-0.2151,-0.2162,-0.2173,-0.219,-0.2199,-0.2206,-0.2215,-0.2214,-0.221,-0.2205,-0.2215,-0.2216,-0.2217,-0.2238,-0.2213,-0.2253,-0.226,-0.2266,-0.2272,-0.2252,-0.2257,-0.2201,-0.2201,-0.2201,0,0,-0.2101,-0.2117,-0.2122,-0.2158,-0.2169,-0.2211,-0.2191,-0.221,-0.225,-0.221,-0.2242,-0.2227,-0.2226,-0.225,-0.2256,-0.2241,-0.2271,-0.227,-0.2275,-0.2278,-0.2255,-0.2261,-0.2265,-0.2203,-0.2203,-0.2202,0,0,-0.2104,-0.2109,-0.2123,-0.2155,-0.2186,-0.221,-0.2219,-0.2248,-0.2259,-0.2292,-0.2277,-0.2277,-0.229,-0.2297,-0.2302,-0.235,-0.2308,-0.2352,-0.2394,-0.2374,-0.2378,-0.2381,-0.2361,-0.2362,-0.2357,-0.2357,-0.2357,0,-0.2101,-0.2129,-0.2134,-0.217,-0.2209,-0.2216,-0.2268,-0.2288,-0.2319,-0.2336,-0.2308,-0.2321,-0.2316,-0.2351,-0.2373,-0.2366,-0.2344,-0.236,-0.2382,-0.2385,-0.2387,-0.2365,-0.2365,-0.236,-0.236,-0.2359,-0.2359,0,-0.2125,-0.2158,-0.2168,-0.2225,-0.2269,-0.2306,-0.2357,-0.2389,-0.2396,-0.2408,-0.2426,-0.2405,-0.2414,-0.2414,-0.2411,-0.2436,-0.2413,-0.239,-0.2356,-0.2396,-0.2371,-0.237,-0.2365,-0.2363,-0.2363,-0.2362,0,0,-0.2097,-0.2174,-0.2177,-0.223,-0.2306,-0.2351,-0.2424,-0.2492,-0.2534,-0.252,-0.255,-0.2555,-0.2516,-0.252,-0.25,-0.2483,-0.2485,-0.2451,-0.2448,-0.2424,-0.2438,-0.233,-0.2318,-0.246,-0.246,-0.246,-0.2416,0,-0.2119,-0.2186,-0.224,-0.2341,-0.2387,-0.2458,-0.2537,-0.2596,-0.2619,-0.2642,-0.2596,-0.2608,-0.2566,-0.2564,-0.254,-0.2496,-0.2485,-0.2499,-0.2409,-0.2407,-0.23,-0.2314,-0.2176,-0.2116,-0.2414,-0.2414,-0.2414,0,-0.2119,-0.2175,-0.2254,-0.241,-0.2442,-0.2508,-0.2636,-0.2711,-0.2748,-0.2764,-0.2742,-0.2704,-0.268,-0.2628,-0.2558,-0.2565,-0.252,-0.2472,-0.2469,-0.2345,-0.2296,-0.2125,-0.2103,-0.2091,-0.2412,-0.2412,-0.2412,0,-0.2062,-0.2196,-0.2257,-0.2304,-0.2463,-0.2529,-0.2622,-0.2712,-0.2749,-0.2815,-0.2803,-0.2788,-0.2726,-0.2681,-0.257,-0.2578,-0.2461,-0.2462,-0.2322,-0.2314,-0.2168,-0.2146,-0.2114,-0.2425,-0.2426,-0.2426,-0.2426,0,-0.2051,-0.2113,-0.2226,-0.2262,-0.2349,-0.25,-0.2575,-0.2683,-0.2758,-0.2714,-0.2826,-0.2742,-0.273,-0.2642,-0.2587,-0.2423,-0.2473,-0.2328,-0.2292,-0.2185,-0.2166,-0.2123,-0.2163,-0.2424,-0.2424,-0.2425,-0.2425,0,-0.1963,-0.2035,-0.2107,-0.2264,-0.23,-0.2354,-0.2489,-0.2509,-0.2668,-0.2604,-0.2612,-0.2675,-0.2573,-0.2551,-0.2455,-0.24,-0.2255,-0.2243,-0.2116,-0.2066,-0.1929,-0.1977,-0.1933,-0.1886,-0.2101,-0.2098,-0.2096,0,-0.1925,-0.1937,-0.2036,-0.2022,-0.2077,-0.2163,-0.2168,-0.2381,-0.2365,-0.2474,-0.2375,-0.2384,-0.225,-0.2163,-0.2109,-0.2039,-0.2082,-0.1914,-0.191,-0.1897,-0.1926,-0.1989,-0.1959,-0.1749,-0.1744,-0.174,-0.1736,0,-0.1842,-0.1846,-0.1883,-0.184,-0.183,-0.1842,-0.1877,-0.187,-0.2025,-0.2006,-0.1917,-0.1876,-0.1841,-0.1724,-0.176,-0.1704,-0.1871,-0.1822,-0.1839,-0.167,-0.1707,-0.1651,-0.1821,-0.1699,-0.1702,-0.1705,-0.1707,-0.1709,-0.1741,-0.1708,-0.1696,-0.1658,-0.1608,-0.1518,-0.1491,-0.1476,-0.1437,-0.1386,-0.1403,-0.1278,-0.141,-0.1426,-0.14,-0.1414,-0.1528,-0.1412,-0.1479,-0.1551,-0.1479,-0.1564,-0.1381,-0.1382,-0.1384,-0.1386,-0.1387,0,-0.1625,-0.1581,-0.1515,-0.1445,-0.1313,-0.1359,-0.1274,-0.1211,-0.1063,-0.0928,-0.0818,-0.0771,-0.0835,-0.1003,-0.1141,-0.1118,-0.1136,-0.1137,-0.1209,-0.12,-0.1273,-0.1227,-0.0963,-0.0963,-0.0964,-0.0964,-0.0964,-0.0964,-0.1555,-0.1458,-0.142,-0.1186,-0.1114,-0.0946,-0.0882,-0.0758,-0.0648,-0.041,-0.0278,-0.0217,-0.0551,-0.0945,-0.1061,-0.1025,-0.1062,-0.1013,-0.1105,-0.1172,-0.1205,-0.1235,-0.12,-0.0935,-0.0935,-0.0955,-0.0956,-0.0956]},{"header":{"parameterUnit":"m.s-1","parameterCategory":2,"la1":30.2991,"la2":30.254,"lo1":-89.0895,"lo2":-89.0444,"dy":0.0017,"dx":0.0017,"nx":28,"ny":28,"refTime":"2024-05-25T21:00:00:Z","depth":"0","parameterNumber":3,"parameterNumberName":"V-component_of_CURRENTS"},"data":[0,0,0,0,0,0,0,0,0,0,0,0,0,0,0,0,0,0,0,0,0,0,0,0,0,0,0,0,0,0,0,0,0,0,0,0,0,0,0,0,0,0,0,0,0,0,0,0,0,0,0,0,0,0,0,0,0,0,0.002,0.0021,0,0.0111,0.0113,0.0114,0.0182,0.0182,0.0183,0.0183,0.0303,0.0306,0.0309,0,0,0,0,0,0,0,0,0,0,0,0,0,-0.0025,-0.0025,0.002,0.0021,0.0022,0.0111,0.0113,0.0114,0.0182,0.0182,0.0183,0.0183,0.0302,0.0306,0.0309,0,0,0,0,0,0,0,0,0,0,0,0,0,0.0025,-0.0025,0.002,0.0065,0.007,0.0111,0.0113,0.0114,0.0182,0.0182,0.0183,0.0184,0.0301,0.0305,0.0309,0.0322,0,0,0.0322,0.0324,0,0,0,0,0,0,0,0,0.0022,0.0026,0.0057,0.0062,0.0068,0.0134,0.0141,0.0185,0.0182,0.0141,0.0183,0.0184,0.0248,0.0256,0.0274,0.0327,0.0332,0.0323,0.0325,0.0327,0.0328,0,0,0,0,0,0,0,0.0018,0.0023,0.0058,0.0058,0.0065,0.0105,0.0113,0.015,0.0191,0.0145,0.0149,0.0157,0.0251,0.027,0.0278,0.0334,0.0322,0.0326,0.0329,0.033,0.0413,0.0412,0,0,0,0,0,0,-0.0001,0.0019,0.0055,0.006,0.0044,0.0105,0.0114,0.0114,0.0191,0.0202,0.0156,0.016,0.0263,0.0273,0.0282,0.0295,0.0327,0.0331,0.0333,0.0413,0.0413,0.0412,0,0,0,0,0,0,-0.0003,0.0001,0.0051,0.0041,0.005,0.0104,0.0105,0.0115,0.0134,0.0199,0.0211,0.0164,0.0263,0.0276,0.0313,0.03,0.0333,0.0336,0.0413,0.0413,0.0412,0.0324,0,0,0,0,0,0,-0.0004,-0.0001,-0.001,0.0039,0.005,0.0063,0.0104,0.0116,0.0136,0.0142,0.0209,0.0221,0.0265,0.0306,0.0317,0.0306,0.034,0.0414,0.0413,0.0413,0.0327,0.0321,0.0315,0,0,0,0,0,-0.0007,-0.003,-0.0011,-0.0007,0.0036,0.0062,0.0071,0.0114,0.0136,0.0135,0.0186,0.0219,0.031,0.0309,0.0322,0.0312,0.0414,0.0413,0.0413,0.033,0.0322,0.0315,0,0,0,0,0,0,-0.0056,-0.0024,-0.0002,-0.0015,0.0018,0.0073,0.0074,0.0106,0.0146,0.0152,0.0217,0.0232,0.0259,0.0298,0.0296,0.0335,0.0367,0.0369,0.03,0.0293,0.0287,0.0275,0.0343,0,0,0,0,0,-0.0071,-0.0078,-0.0035,-0.0043,-0.0033,0.0021,0.0036,0.0065,0.0108,0.0126,0.0175,0.0225,0.0265,0.0288,0.0329,0.035,0.0398,0.0353,0.0346,0.0341,0.034,0.0394,0.0392,0.041,0.041,0.041,0,0,-0.0089,-0.0074,-0.0076,-0.0053,-0.0024,-0.0026,0.0032,0.0046,0.0052,0.0132,0.0152,0.0204,0.0266,0.0291,0.0306,0.0322,0.0361,0.034,0.0334,0.0338,0.0393,0.0392,0.039,0.0409,0.041,0.041,0,0,-0.0138,-0.0119,-0.0143,-0.0128,-0.0098,-0.0063,-0.0064,-0.0014,0.0014,0.0043,0.01,0.0145,0.0205,0.0248,0.0278,0.0262,0.0325,0.0273,0.0235,0.0286,0.0285,0.0284,0.0342,0.0348,0.0272,0.0271,0.0271,0,-0.016,-0.0193,-0.0144,-0.0167,-0.0175,-0.0088,-0.0124,-0.0073,-0.0016,0.0006,0.0035,0.0136,0.0185,0.0225,0.0222,0.0247,0.0291,0.0255,0.0277,0.0278,0.0279,0.0338,0.0345,0.0267,0.0267,0.0268,0.0268,0,-0.0231,-0.0257,-0.0272,-0.0274,-0.0269,-0.0284,-0.0224,-0.0201,-0.0152,-0.0088,-0.0032,0.0049,0.0109,0.0132,0.0174,0.0205,0.0238,0.0259,0.0292,0.0271,0.0336,0.0345,0.0261,0.0262,0.0264,0.0265,0,0,-0.0279,-0.0319,-0.0323,-0.0364,-0.034,-0.0348,-0.0335,-0.0298,-0.0267,-0.0187,-0.015,-0.0069,0.0003,0.0042,0.0107,0.016,0.0206,0.0208,0.0213,0.0258,0.0328,0.0401,0.0419,0.0231,0.0232,0.0232,0.0369,0,-0.0352,-0.0443,-0.0437,-0.0514,-0.056,-0.0507,-0.0502,-0.0447,-0.0353,-0.0278,-0.0166,-0.0082,-0.0035,0.0011,0.006,0.0184,0.0226,0.0168,0.0348,0.0354,0.0415,0.043,0.0474,0.0604,0.0379,0.038,0.0381,0,-0.0422,-0.0486,-0.0592,-0.066,-0.0674,-0.0697,-0.0677,-0.065,-0.0504,-0.0423,-0.0311,-0.0181,-0.0073,-0.0028,0.0143,0.0105,0.0196,0.0288,0.0296,0.0402,0.0444,0.059,0.063,0.0784,0.0396,0.0395,0.0394,0,-0.0491,-0.059,-0.0691,-0.0716,-0.0763,-0.0803,-0.0804,-0.0698,-0.0653,-0.0478,-0.037,-0.0246,-0.0117,-0.0019,0.0186,0.0165,0.0388,0.0381,0.0526,0.0533,0.0627,0.064,0.0832,0.0476,0.0476,0.0476,0.0475,0,-0.0572,-0.065,-0.0739,-0.0794,-0.0904,-0.0895,-0.0926,-0.0868,-0.0751,-0.0634,-0.0436,-0.0261,-0.0099,0.0077,0.018,0.0404,0.038,0.0532,0.0577,0.0598,0.0607,0.0791,0.083,0.0481,0.048,0.0479,0.0478,0,-0.0616,-0.0673,-0.0798,-0.0901,-0.0939,-0.1006,-0.1028,-0.1001,-0.0849,-0.0681,-0.0609,-0.0273,-0.0007,0.0145,0.0363,0.0453,0.0719,0.0687,0.0709,0.0754,0.101,0.1041,0.1253,0.1362,0.0859,0.0861,0.0863,0,-0.065,-0.0718,-0.0873,-0.0943,-0.0999,-0.1088,-0.1117,-0.1065,-0.1001,-0.0633,-0.0536,-0.0197,0.0115,0.0465,0.0619,0.0789,0.0869,0.0944,0.0903,0.105,0.1118,0.1118,0.1194,0.0995,0.0998,0.1001,0.1003,0,-0.071,-0.0754,-0.0846,-0.0991,-0.1077,-0.1162,-0.119,-0.117,-0.1004,-0.0796,-0.0383,-0.0078,0.0359,0.0669,0.0876,0.0971,0.1064,0.1004,0.1156,0.1246,0.1261,0.138,0.088,0.1026,0.1023,0.1022,0.102,0.1019,-0.0731,-0.08,-0.09,-0.103,-0.1118,-0.1174,-0.1205,-0.1157,-0.1032,-0.0664,-0.0333,0.0215,0.0699,0.1052,0.1153,0.1365,0.1288,0.143,0.1458,0.1448,0.155,0.1106,0.13,0.1299,0.1299,0.1298,0.1298,0,-0.0762,-0.0819,-0.0926,-0.1064,-0.1128,-0.1181,-0.1193,-0.1143,-0.0968,-0.0596,-0.019,0.0628,0.1032,0.138,0.1663,0.1812,0.1821,0.1872,0.1883,0.1943,0.1565,0.157,0.1833,0.1833,0.1832,0.1832,0.1832,0.1832,-0.0777,-0.0869,-0.0917,-0.1029,-0.1099,-0.1137,-0.1132,-0.1013,-0.079,-0.0219,0.0308,0.078,0.1356,0.1858,0.2178,0.2208,0.2365,0.2304,0.2405,0.2136,0.2096,0.2058,0.2075,0.2439,0.244,0.2781,0.2785,0.2787]}],[{"header":{"parameterUnit":"m.s-1","parameterCategory":2,"la1":30.2991,"la2":30.254,"lo1":-89.0895,"lo2":-89.0444,"dy":0.0017,"dx":0.0017,"nx":28,"ny":28,"refTime":"2024-05-25T21:00:00:Z","depth":"2","parameterNumber":2,"parameterNumberName":"U-component_of_CURRENTS"},"data":[0,0,0,0,0,0,0,0,0,0,0,0,0,0,0,0,0,0,0,0,0,0,0,0,0,0,0,0,0,0,0,0,0,0,0,0,0,0,0,0,0,0,0,0,0,0,0,0,0,0,0,0,0,0,0,0,0,0,-0.2128,-0.2128,0,-0.216,-0.216,-0.216,-0.2144,-0.2143,-0.2142,-0.2142,-0.212,-0.212,-0.212,0,0,0,0,0,0,0,0,0,0,0,0,0,-0.2042,-0.2044,-0.2128,-0.2128,-0.2129,-0.216,-0.216,-0.216,-0.2144,-0.2143,-0.2142,-0.2141,-0.212,-0.212,-0.212,0,0,0,0,0,0,0,0,0,0,0,0,0,-0.2075,-0.2044,-0.2128,-0.2126,-0.2127,-0.216,-0.216,-0.216,-0.2144,-0.2143,-0.2142,-0.2141,-0.212,-0.212,-0.212,-0.2138,0,0,-0.2119,-0.2119,0,0,0,0,0,0,0,0,-0.2073,-0.2078,-0.2126,-0.2127,-0.2127,-0.2149,-0.2122,-0.2151,-0.2144,-0.2134,-0.2142,-0.2141,-0.2127,-0.2126,-0.2131,-0.2137,-0.2136,-0.2119,-0.2119,-0.2119,-0.2119,0,0,0,0,0,0,0,-0.2071,-0.2076,-0.2138,-0.2127,-0.2127,-0.2121,-0.2125,-0.2128,-0.2132,-0.2135,-0.2135,-0.2143,-0.2126,-0.2131,-0.213,-0.2135,-0.2119,-0.2119,-0.2119,-0.2119,-0.2172,-0.2173,0,0,0,0,0,0,-0.2074,-0.2075,-0.2137,-0.2139,-0.21,-0.2124,-0.2127,-0.2141,-0.2133,-0.2133,-0.2144,-0.2142,-0.2132,-0.2131,-0.213,-0.2166,-0.2119,-0.2119,-0.2119,-0.217,-0.2172,-0.2173,0,0,0,0,0,0,-0.2072,-0.208,-0.2135,-0.2109,-0.2116,-0.2127,-0.2142,-0.2142,-0.2146,-0.2141,-0.2138,-0.2147,-0.2131,-0.213,-0.214,-0.2164,-0.2119,-0.2119,-0.2169,-0.2171,-0.2173,-0.2228,0,0,0,0,0,0,-0.207,-0.2079,-0.2085,-0.211,-0.2118,-0.2162,-0.2143,-0.2143,-0.2154,-0.2152,-0.2143,-0.214,-0.213,-0.2141,-0.214,-0.2163,-0.2119,-0.2167,-0.2169,-0.2172,-0.2224,-0.2232,-0.2238,0,0,0,0,0,-0.2067,-0.2079,-0.2085,-0.2092,-0.2127,-0.2163,-0.2167,-0.2169,-0.2155,-0.2166,-0.216,-0.214,-0.2157,-0.2142,-0.2141,-0.2164,-0.2165,-0.2169,-0.2172,-0.2221,-0.223,-0.2238,0,0,0,0,0,0,-0.2044,-0.2079,-0.2086,-0.2108,-0.2138,-0.2161,-0.2166,-0.2172,-0.2178,-0.2168,-0.2157,-0.2155,-0.2174,-0.2164,-0.2148,-0.2189,-0.2159,-0.2162,-0.2197,-0.2205,-0.2212,-0.2216,-0.2119,0,0,0,0,0,-0.2044,-0.206,-0.2099,-0.2116,-0.2129,-0.2148,-0.216,-0.2169,-0.218,-0.2181,-0.2179,-0.2178,-0.2189,-0.2191,-0.2195,-0.2217,-0.2193,-0.2233,-0.224,-0.2245,-0.225,-0.2232,-0.2237,-0.2184,-0.2184,-0.2184,0,0,-0.2039,-0.2061,-0.207,-0.2112,-0.2127,-0.2166,-0.2152,-0.2175,-0.221,-0.2178,-0.2208,-0.2199,-0.2199,-0.2225,-0.2233,-0.2218,-0.225,-0.2249,-0.2254,-0.2255,-0.2236,-0.2241,-0.2245,-0.2186,-0.2185,-0.2185,0,0,-0.2045,-0.2058,-0.2078,-0.211,-0.2145,-0.2168,-0.2179,-0.221,-0.2222,-0.2255,-0.2243,-0.2248,-0.2264,-0.2271,-0.2276,-0.2323,-0.2285,-0.2327,-0.2365,-0.2349,-0.2353,-0.2356,-0.2334,-0.2335,-0.2332,-0.2332,-0.2332,0,-0.204,-0.2065,-0.209,-0.2126,-0.2149,-0.2174,-0.2209,-0.2242,-0.2275,-0.2288,-0.227,-0.2292,-0.2288,-0.2322,-0.2343,-0.2338,-0.2318,-0.2333,-0.2356,-0.2359,-0.2361,-0.2338,-0.2338,-0.2335,-0.2334,-0.2334,-0.2334,0,-0.2068,-0.209,-0.2102,-0.2159,-0.2199,-0.2222,-0.2282,-0.2317,-0.2328,-0.2351,-0.2376,-0.2367,-0.238,-0.2383,-0.238,-0.2404,-0.2382,-0.2364,-0.2332,-0.2369,-0.2343,-0.2342,-0.2339,-0.2338,-0.2337,-0.2336,0,0,-0.204,-0.2106,-0.2108,-0.2143,-0.2208,-0.2252,-0.2317,-0.2377,-0.2427,-0.2435,-0.2466,-0.2483,-0.2466,-0.2471,-0.246,-0.2448,-0.2449,-0.2419,-0.2417,-0.2391,-0.2408,-0.2308,-0.2297,-0.2431,-0.2431,-0.2431,-0.2383,0,-0.2043,-0.2094,-0.2138,-0.2209,-0.2238,-0.2301,-0.2387,-0.2454,-0.2479,-0.2523,-0.2505,-0.2543,-0.2507,-0.2521,-0.2497,-0.246,-0.2449,-0.2463,-0.2381,-0.2378,-0.2279,-0.2293,-0.2113,-0.2048,-0.2382,-0.2382,-0.2381,0,-0.2042,-0.2078,-0.2122,-0.224,-0.2268,-0.2339,-0.245,-0.2545,-0.2617,-0.2629,-0.2628,-0.2618,-0.2612,-0.2576,-0.2512,-0.2521,-0.2477,-0.2438,-0.2434,-0.232,-0.2276,-0.2065,-0.2033,-0.2379,-0.2379,-0.2379,-0.238,0,-0.1979,-0.2071,-0.2098,-0.213,-0.2273,-0.2335,-0.2451,-0.2564,-0.2635,-0.2708,-0.2708,-0.27,-0.2679,-0.2626,-0.2527,-0.2534,-0.2428,-0.2428,-0.2298,-0.2291,-0.211,-0.2085,-0.2394,-0.2394,-0.2394,-0.2395,-0.2395,0,-0.1943,-0.198,-0.2081,-0.21,-0.221,-0.2347,-0.2474,-0.2579,-0.2687,-0.2697,-0.2771,-0.2711,-0.2688,-0.2607,-0.2539,-0.2388,-0.2436,-0.2302,-0.227,-0.2125,-0.2103,-0.2369,-0.2367,-0.2393,-0.2393,-0.2393,-0.2394,0,-0.1863,-0.1917,-0.1964,-0.2101,-0.2172,-0.2268,-0.2492,-0.2577,-0.2704,-0.2696,-0.2715,-0.2722,-0.2609,-0.256,-0.2455,-0.2384,-0.2282,-0.2226,-0.2054,-0.2002,-0.2161,-0.2163,-0.2095,-0.2091,-0.2088,-0.2085,-0.2083,0,-0.1828,-0.1826,-0.1934,-0.198,-0.2045,-0.2216,-0.2339,-0.2552,-0.2598,-0.2625,-0.2578,-0.2533,-0.2386,-0.226,-0.2151,-0.2041,-0.2141,-0.1863,-0.1851,-0.2154,-0.213,-0.2137,-0.2143,-0.1638,-0.1632,-0.1628,-0.1624,0,-0.1743,-0.1754,-0.1777,-0.1854,-0.1963,-0.2112,-0.2273,-0.2305,-0.2457,-0.2422,-0.2298,-0.2206,-0.2068,-0.1867,-0.1807,-0.1723,-0.1874,-0.1762,-0.2104,-0.1744,-0.1719,-0.1697,-0.1719,-0.1582,-0.1586,-0.1589,-0.1591,-0.1593,-0.1663,-0.1636,-0.1641,-0.1715,-0.1838,-0.195,-0.1993,-0.2076,-0.2099,-0.197,-0.1984,-0.1799,-0.1803,-0.1589,-0.1473,-0.1404,-0.1536,-0.1508,-0.1524,-0.1545,-0.1502,-0.1473,-0.1282,-0.1284,-0.1286,-0.1288,-0.129,0,-0.1565,-0.1527,-0.1533,-0.1596,-0.1636,-0.1779,-0.1891,-0.1861,-0.1749,-0.165,-0.1516,-0.1379,-0.127,-0.1263,-0.1056,-0.1037,-0.1051,-0.1025,-0.1043,-0.1083,-0.112,-0.1059,-0.0719,-0.0717,-0.0716,-0.0715,0,0,-0.1512,-0.1439,-0.1408,-0.1376,-0.1422,-0.1444,-0.1459,-0.1392,-0.1334,-0.1138,-0.1035,-0.1152,-0.1201,-0.0989,-0.0929,-0.0756,-0.0912,-0.0719,-0.117,-0.1225,-0.126,-0.1382,-0.133,0,0,0,0,0]},{"header":{"parameterUnit":"m.s-1","parameterCategory":2,"la1":30.2991,"la2":30.254,"lo1":-89.0895,"lo2":-89.0444,"dy":0.0017,"dx":0.0017,"nx":28,"ny":28,"refTime":"2024-05-25T21:00:00:Z","depth":"2","parameterNumber":3,"parameterNumberName":"V-component_of_CURRENTS"},"data":[0,0,0,0,0,0,0,0,0,0,0,0,0,0,0,0,0,0,0,0,0,0,0,0,0,0,0,0,0,0,0,0,0,0,0,0,0,0,0,0,0,0,0,0,0,0,0,0,0,0,0,0,0,0,0,0,0,0,-0.0081,-0.008,0,0.0013,0.0014,0.0015,0.0078,0.0078,0.0078,0.0078,0.0193,0.0195,0.0198,0,0,0,0,0,0,0,0,0,0,0,0,0,-0.0145,-0.0144,-0.0081,-0.008,-0.0079,0.0013,0.0014,0.0015,0.0077,0.0078,0.0078,0.0079,0.0192,0.0195,0.0198,0,0,0,0,0,0,0,0,0,0,0,0,0,-0.009,-0.0144,-0.0081,-0.0038,-0.0033,0.0012,0.0014,0.0016,0.0077,0.0078,0.0078,0.0079,0.0191,0.0195,0.0199,0.0214,0,0,0.0211,0.0213,0,0,0,0,0,0,0,0,-0.0093,-0.0087,-0.0045,-0.0041,-0.0035,0.0033,0.0034,0.0083,0.0077,0.0037,0.0078,0.0079,0.014,0.0148,0.0166,0.022,0.0225,0.0212,0.0214,0.0216,0.0217,0,0,0,0,0,0,0,-0.0097,-0.0091,-0.0043,-0.0044,-0.0038,-0.0002,0.0006,0.0043,0.0086,0.004,0.0045,0.0053,0.0143,0.0162,0.0169,0.0226,0.0211,0.0215,0.0218,0.0219,0.0309,0.0309,0,0,0,0,0,0,-0.0114,-0.0095,-0.0046,-0.004,-0.0065,-0.0001,0.0008,0.0011,0.0085,0.0096,0.0053,0.0056,0.0155,0.0164,0.0174,0.0196,0.0216,0.022,0.0222,0.0309,0.0309,0.0309,0,0,0,0,0,0,-0.0116,-0.0111,-0.005,-0.0066,-0.0055,-0.0001,0.0003,0.0013,0.0033,0.0094,0.0106,0.0062,0.0156,0.0168,0.0206,0.0201,0.0221,0.0225,0.031,0.0309,0.0309,0.0241,0,0,0,0,0,0,-0.0119,-0.0113,-0.0118,-0.0067,-0.0055,-0.0031,0.0003,0.0014,0.0037,0.0042,0.0106,0.0117,0.0157,0.02,0.021,0.0207,0.0228,0.031,0.0309,0.0309,0.0244,0.0239,0.0235,0,0,0,0,0,-0.0121,-0.0138,-0.0119,-0.0113,-0.0064,-0.0032,-0.0023,0.0019,0.0036,0.004,0.0086,0.0115,0.0207,0.0203,0.0216,0.0213,0.031,0.0309,0.0309,0.0246,0.024,0.0235,0,0,0,0,0,0,-0.017,-0.0131,-0.011,-0.0114,-0.0078,-0.0022,-0.0017,0.0013,0.0053,0.0057,0.0117,0.0131,0.0161,0.0197,0.0192,0.0239,0.0262,0.0264,0.0209,0.0204,0.02,0.019,0.0232,0,0,0,0,0,-0.0184,-0.0182,-0.0136,-0.0136,-0.0124,-0.007,-0.0053,-0.0025,0.0018,0.0036,0.0082,0.013,0.017,0.0194,0.0233,0.026,0.0301,0.0267,0.0262,0.0258,0.0259,0.0312,0.0313,0.0309,0.0309,0.0309,0,0,-0.0201,-0.018,-0.0177,-0.0146,-0.0114,-0.0106,-0.0059,-0.0039,-0.0026,0.0042,0.0069,0.0114,0.0173,0.0203,0.022,0.0233,0.028,0.0258,0.0254,0.0257,0.0312,0.0313,0.0313,0.0309,0.0309,0.0309,0,0,-0.0241,-0.0217,-0.0231,-0.0209,-0.0173,-0.0136,-0.0135,-0.0083,-0.0054,-0.0022,0.0029,0.0072,0.0131,0.0176,0.0205,0.0201,0.0252,0.021,0.0184,0.0236,0.0236,0.0238,0.0284,0.029,0.0211,0.0211,0.0211,0,-0.0264,-0.0271,-0.0229,-0.0239,-0.0223,-0.0156,-0.0163,-0.0127,-0.0068,-0.0036,-0.0025,0.0075,0.012,0.017,0.0168,0.0191,0.0227,0.0197,0.0229,0.0231,0.0234,0.0281,0.0288,0.0207,0.0208,0.0208,0.0209,0,-0.0314,-0.0316,-0.0323,-0.0307,-0.0287,-0.028,-0.0226,-0.0194,-0.015,-0.0102,-0.0045,0.0017,0.0081,0.0097,0.0132,0.0172,0.0193,0.0213,0.0239,0.023,0.0281,0.0289,0.0203,0.0204,0.0205,0.0206,0,0,-0.0365,-0.036,-0.036,-0.037,-0.032,-0.0316,-0.0279,-0.0222,-0.0193,-0.0135,-0.0092,-0.0026,0.0019,0.0055,0.0104,0.0148,0.0191,0.0181,0.0186,0.022,0.0303,0.0356,0.0371,0.0215,0.0217,0.0218,0.033,0,-0.041,-0.0452,-0.0422,-0.0447,-0.046,-0.0386,-0.0372,-0.0312,-0.0227,-0.017,-0.0087,-0.004,-0.0001,0.0024,0.0076,0.017,0.0213,0.0159,0.0313,0.0318,0.0361,0.0382,0.0332,0.0432,0.0339,0.034,0.0341,0,-0.0463,-0.0483,-0.0521,-0.0527,-0.0527,-0.0536,-0.0468,-0.0457,-0.0341,-0.0269,-0.0177,-0.0091,-0.0007,0.0014,0.0164,0.0128,0.0205,0.0271,0.0278,0.0358,0.0388,0.0429,0.0452,0.0357,0.0356,0.0354,0.0353,0,-0.0527,-0.0549,-0.0583,-0.0584,-0.058,-0.0584,-0.0594,-0.0497,-0.048,-0.0342,-0.0256,-0.0145,-0.0067,0.0029,0.0193,0.0177,0.0361,0.0359,0.0477,0.0482,0.0487,0.0491,0.0453,0.0452,0.0452,0.0452,0.0452,0,-0.0585,-0.0615,-0.0631,-0.0659,-0.0722,-0.0698,-0.0743,-0.0676,-0.0603,-0.0543,-0.0348,-0.0207,-0.0055,0.01,0.0193,0.0379,0.0367,0.0484,0.052,0.0463,0.0462,0.0435,0.0431,0.0456,0.0455,0.0454,0.0454,0,-0.0649,-0.0652,-0.0702,-0.073,-0.0762,-0.0823,-0.0893,-0.0913,-0.0778,-0.0671,-0.0623,-0.0279,-0.0037,0.0118,0.0316,0.041,0.0548,0.061,0.0533,0.056,0.0629,0.062,0.0748,0.0751,0.0753,0.0755,0.0757,0,-0.0687,-0.0719,-0.0781,-0.0842,-0.0869,-0.0979,-0.1064,-0.1031,-0.1012,-0.067,-0.0603,-0.0281,0.0017,0.0344,0.0499,0.0664,0.0641,0.0724,0.0687,0.0639,0.0662,0.0649,0.0638,0.0662,0.0663,0.0664,0.0664,0,-0.0755,-0.0765,-0.0807,-0.0924,-0.1027,-0.116,-0.1246,-0.1243,-0.1122,-0.0919,-0.0525,-0.0233,0.0179,0.0445,0.0655,0.0733,0.0686,0.0747,0.0732,0.0599,0.0569,0.0588,0.0577,0.067,0.067,0.0669,0.0669,0.0669,-0.0793,-0.0836,-0.0885,-0.0993,-0.1128,-0.1256,-0.1318,-0.1305,-0.1209,-0.083,-0.0531,-0.006,0.0206,0.0555,0.0708,0.0805,0.0807,0.0807,0.0801,0.0794,0.0768,0.0745,0.0874,0.0874,0.0875,0.0875,0.0875,0,-0.0834,-0.0879,-0.097,-0.1079,-0.1203,-0.1281,-0.1368,-0.1345,-0.1166,-0.0788,-0.0392,-0.0036,0.0294,0.0526,0.0715,0.0866,0.0814,0.0857,0.0755,0.0749,0.0744,0.071,0.0803,0.0803,0.0804,0.0804,0,0,-0.0855,-0.0929,-0.0962,-0.1105,-0.1194,-0.1312,-0.134,-0.124,-0.101,-0.0625,-0.031,0.0071,0.0367,0.0458,0.0627,0.0742,0.0711,0.0735,0.0778,0.0636,0.0629,0.0699,0.0639,0,0,0,0,0]}],[{"header":{"parameterUnit":"m.s-1","parameterCategory":2,"la1":30.2991,"la2":30.254,"lo1":-89.0895,"lo2":-89.0444,"dy":0.0017,"dx":0.0017,"nx":28,"ny":28,"refTime":"2024-05-25T21:00:00:Z","depth":"4","parameterNumber":2,"parameterNumberName":"U-component_of_CURRENTS"},"data":[0,0,0,0,0,0,0,0,0,0,0,0,0,0,0,0,0,0,0,0,0,0,0,0,0,0,0,0,0,0,0,0,0,0,0,0,0,0,0,0,0,0,0,0,0,0,0,0,0,0,0,0,0,0,0,0,0,0,-0.1533,-0.1534,0,-0.1616,-0.1616,-0.1617,-0.1658,-0.1658,-0.1658,-0.1659,-0.1714,-0.1716,-0.1717,0,0,0,0,0,0,0,0,0,0,0,0,0,-0.1375,-0.1378,-0.1533,-0.1534,-0.1536,-0.1616,-0.1616,-0.1617,-0.1658,-0.1658,-0.1658,-0.1659,-0.1714,-0.1716,-0.1717,0,0,0,0,0,0,0,0,0,0,0,0,0,-0.1447,-0.1379,-0.1533,-0.1568,-0.1572,-0.1615,-0.1616,-0.1618,-0.1658,-0.1658,-0.1658,-0.1659,-0.1714,-0.1715,-0.1717,-0.1721,0,0,-0.1723,-0.1724,0,0,0,0,0,0,0,0,-0.1443,-0.1452,-0.1561,-0.1565,-0.157,-0.163,-0.1582,-0.1652,-0.1657,-0.1622,-0.1659,-0.1659,-0.1685,-0.1689,-0.17,-0.1723,-0.1726,-0.1723,-0.1724,-0.1725,-0.1726,0,0,0,0,0,0,0,-0.1438,-0.1448,-0.1563,-0.1563,-0.1568,-0.1567,-0.1578,-0.1595,-0.1647,-0.1625,-0.1629,-0.1643,-0.1687,-0.1698,-0.1702,-0.1726,-0.1723,-0.1725,-0.1726,-0.1727,-0.183,-0.1832,0,0,0,0,0,0,-0.1435,-0.1444,-0.156,-0.1566,-0.1509,-0.157,-0.1582,-0.1608,-0.1648,-0.1656,-0.1642,-0.1644,-0.1695,-0.17,-0.1704,-0.1778,-0.1725,-0.1727,-0.1728,-0.1829,-0.1831,-0.1832,0,0,0,0,0,0,-0.1432,-0.1445,-0.1557,-0.1508,-0.1523,-0.1573,-0.1601,-0.1609,-0.1647,-0.1662,-0.1669,-0.1676,-0.1695,-0.1701,-0.1747,-0.1778,-0.1728,-0.1729,-0.1827,-0.1829,-0.1832,-0.1883,0,0,0,0,0,0,-0.1427,-0.1444,-0.1471,-0.1509,-0.1526,-0.1605,-0.1601,-0.161,-0.1655,-0.1659,-0.1692,-0.1697,-0.1696,-0.1744,-0.1748,-0.178,-0.1731,-0.1825,-0.1828,-0.1831,-0.1879,-0.1887,-0.1894,0,0,0,0,0,-0.1421,-0.1455,-0.1472,-0.1486,-0.1558,-0.1607,-0.1616,-0.165,-0.1657,-0.1683,-0.1705,-0.1697,-0.1767,-0.1747,-0.1752,-0.1784,-0.1823,-0.1827,-0.1831,-0.1876,-0.1885,-0.1893,0,0,0,0,0,0,-0.1392,-0.1463,-0.1482,-0.1534,-0.1578,-0.1616,-0.1647,-0.1665,-0.1704,-0.1714,-0.1718,-0.1725,-0.1775,-0.1775,-0.1753,-0.1824,-0.1794,-0.1798,-0.1827,-0.1835,-0.1842,-0.1832,-0.1732,0,0,0,0,0,-0.14,-0.1453,-0.1505,-0.1549,-0.1574,-0.1614,-0.1642,-0.1667,-0.1702,-0.1721,-0.1743,-0.1767,-0.179,-0.181,-0.183,-0.1869,-0.1848,-0.1894,-0.1901,-0.1907,-0.1903,-0.1902,-0.1908,-0.1845,-0.1845,-0.1845,0,0,-0.1399,-0.1447,-0.1476,-0.1548,-0.1584,-0.163,-0.1633,-0.1687,-0.1725,-0.1719,-0.1781,-0.1796,-0.1807,-0.1852,-0.1875,-0.1859,-0.1915,-0.1912,-0.1917,-0.1909,-0.1906,-0.1912,-0.1917,-0.1847,-0.1847,-0.1846,0,0,-0.1423,-0.147,-0.1523,-0.1565,-0.1634,-0.1659,-0.1681,-0.1737,-0.1765,-0.1822,-0.1825,-0.1857,-0.1903,-0.1912,-0.1921,-0.198,-0.1952,-0.1995,-0.2025,-0.2024,-0.2029,-0.2032,-0.2011,-0.2012,-0.1999,-0.1999,-0.2,0,-0.1415,-0.1489,-0.1541,-0.1598,-0.163,-0.1675,-0.172,-0.1759,-0.1823,-0.1838,-0.1853,-0.1911,-0.1927,-0.196,-0.1987,-0.1995,-0.1983,-0.1989,-0.2031,-0.2035,-0.2037,-0.2014,-0.2015,-0.2002,-0.2002,-0.2002,-0.2001,0,-0.1477,-0.1535,-0.1567,-0.1654,-0.1697,-0.1742,-0.1799,-0.1845,-0.188,-0.1905,-0.1958,-0.1982,-0.2008,-0.2028,-0.203,-0.2064,-0.2045,-0.2038,-0.2004,-0.2047,-0.202,-0.202,-0.2007,-0.2005,-0.2005,-0.2004,0,0,-0.1436,-0.1581,-0.1591,-0.1635,-0.1725,-0.1762,-0.1829,-0.1883,-0.1919,-0.1977,-0.2008,-0.206,-0.2065,-0.2075,-0.2083,-0.2093,-0.2111,-0.2084,-0.2082,-0.2052,-0.2098,-0.1951,-0.1936,-0.2115,-0.2115,-0.2116,-0.207,0,-0.1455,-0.1569,-0.1632,-0.1713,-0.1761,-0.1817,-0.187,-0.1928,-0.1972,-0.2019,-0.204,-0.208,-0.2085,-0.2105,-0.2117,-0.2117,-0.2114,-0.2123,-0.207,-0.2067,-0.1923,-0.1932,-0.2117,-0.2069,-0.2069,-0.2069,-0.2069,0,-0.1474,-0.155,-0.1646,-0.174,-0.1765,-0.1816,-0.189,-0.1945,-0.201,-0.2043,-0.2077,-0.2101,-0.2131,-0.2131,-0.2134,-0.2142,-0.2123,-0.2116,-0.2114,-0.1955,-0.1919,-0.202,-0.2068,-0.2068,-0.2068,-0.2068,-0.2068,0,-0.1411,-0.1538,-0.1616,-0.1653,-0.1778,-0.1815,-0.1866,-0.1943,-0.1986,-0.2053,-0.2087,-0.2118,-0.2141,-0.2135,-0.2124,-0.2138,-0.2107,-0.2118,-0.196,-0.1949,-0.2073,-0.207,-0.2103,-0.2103,-0.2104,-0.2104,-0.2104,0,-0.1381,-0.1436,-0.1597,-0.1638,-0.1704,-0.1791,-0.1852,-0.1909,-0.1984,-0.2013,-0.209,-0.2107,-0.2148,-0.214,-0.2121,-0.2021,-0.2097,-0.1951,-0.1924,-0.2097,-0.2097,-0.2072,-0.2069,-0.2102,-0.2102,-0.2103,-0.2103,0,-0.129,-0.1407,-0.1497,-0.1643,-0.1683,-0.1726,-0.1835,-0.1864,-0.196,-0.2001,-0.2024,-0.2101,-0.2071,-0.2076,-0.2054,-0.1996,-0.1932,-0.1875,-0.2041,-0.2026,-0.1779,-0.178,-0.1699,-0.1693,-0.1688,-0.1684,-0.1681,0,-0.1246,-0.1299,-0.1484,-0.1527,-0.159,-0.1672,-0.1708,-0.1825,-0.1847,-0.1971,-0.196,-0.1993,-0.2011,-0.1856,-0.1882,-0.1798,-0.1781,-0.1751,-0.1782,-0.1754,-0.1736,-0.1745,-0.1752,-0.1673,-0.1672,-0.1671,-0.1669,0,-0.1148,-0.1245,-0.1329,-0.1437,-0.1496,-0.1552,-0.1611,-0.1621,-0.1734,-0.1856,-0.1841,-0.1831,-0.1783,-0.1746,-0.1677,-0.1633,-0.1779,-0.1701,-0.1712,-0.1741,-0.1722,-0.1711,-0.1724,-0.1653,-0.1655,-0.1657,-0.1658,0,-0.1058,-0.1105,-0.124,-0.1312,-0.1386,-0.1389,-0.145,-0.1468,-0.152,-0.1661,-0.1647,-0.1684,-0.1754,-0.1656,-0.1602,-0.1529,-0.1517,-0.1498,-0.1519,-0.1538,-0.1504,-0.1458,-0.1268,0,0,0,0,0,-0.0948,-0.1008,-0.1088,-0.1173,-0.1238,-0.1276,-0.1359,-0.142,-0.1542,-0.1481,-0.1562,-0.1511,-0.1457,-0.1488,-0.137,-0.1505,-0.1504,-0.1366,-0.149,-0.156,-0.158,-0.1554,0,0,0,0,0,0,-0.0885,-0.0965,-0.105,-0.1033,-0.1047,-0.1094,-0.1135,-0.1221,-0.12,-0.1337,-0.13,-0.1427,-0.137,-0.1478,-0.1339,-0.1341,-0.1392,-0.1401,-0.1397,-0.155,-0.1567,-0.1582,-0.1563,0,0,0,0,0]},{"header":{"parameterUnit":"m.s-1","parameterCategory":2,"la1":30.2991,"la2":30.254,"lo1":-89.0895,"lo2":-89.0444,"dy":0.0017,"dx":0.0017,"nx":28,"ny":28,"refTime":"2024-05-25T21:00:00:Z","depth":"4","parameterNumber":3,"parameterNumberName":"V-component_of_CURRENTS"},"data":[0,0,0,0,0,0,0,0,0,0,0,0,0,0,0,0,0,0,0,0,0,0,0,0,0,0,0,0,0,0,0,0,0,0,0,0,0,0,0,0,0,0,0,0,0,0,0,0,0,0,0,0,0,0,0,0,0,0,-0.0104,-0.0103,0,-0.0029,-0.0029,-0.0028,0.0014,0.0014,0.0014,0.0014,0.0106,0.0109,0.0111,0,0,0,0,0,0,0,0,0,0,0,0,0,-0.0157,-0.0157,-0.0104,-0.0103,-0.0102,-0.003,-0.0028,-0.0027,0.0014,0.0014,0.0014,0.0014,0.0105,0.0108,0.0111,0,0,0,0,0,0,0,0,0,0,0,0,0,-0.0113,-0.0157,-0.0104,-0.0073,-0.007,-0.003,-0.0028,-0.0027,0.0014,0.0014,0.0014,0.0014,0.0104,0.0108,0.0112,0.0132,0,0,0.0123,0.0124,0,0,0,0,0,0,0,0,-0.0116,-0.0111,-0.0079,-0.0075,-0.0071,-0.0018,-0.0014,0.0027,0.0014,-0.0017,0.0014,0.0014,0.0066,0.0073,0.0087,0.0137,0.0141,0.0123,0.0125,0.0127,0.0128,0,0,0,0,0,0,0,-0.0119,-0.0114,-0.0073,-0.0078,-0.0073,-0.0045,-0.0039,-0.0005,0.0024,-0.0014,-0.0011,-0.0005,0.0068,0.0084,0.009,0.0142,0.0123,0.0126,0.0128,0.013,0.0224,0.0224,0,0,0,0,0,0,-0.0133,-0.0117,-0.0076,-0.0071,-0.0095,-0.0045,-0.0038,-0.0034,0.0023,0.0032,-0.0005,-0.0003,0.0077,0.0086,0.0093,0.0127,0.0127,0.013,0.0132,0.0224,0.0224,0.0224,0,0,0,0,0,0,-0.0134,-0.013,-0.0079,-0.0093,-0.0085,-0.0045,-0.004,-0.0033,-0.0017,0.003,0.0039,0.0004,0.0078,0.0088,0.0125,0.0131,0.0132,0.0135,0.0223,0.0224,0.0224,0.0192,0,0,0,0,0,0,-0.0136,-0.0131,-0.0135,-0.0094,-0.0084,-0.0059,-0.004,-0.0032,-0.0013,-0.001,0.0041,0.0049,0.0079,0.0119,0.0128,0.0136,0.0138,0.0223,0.0223,0.0224,0.0192,0.0191,0.019,0,0,0,0,0,-0.0138,-0.0147,-0.0135,-0.013,-0.009,-0.0059,-0.0052,-0.0022,-0.0013,-0.0007,0.0029,0.0048,0.013,0.0122,0.0133,0.0142,0.0222,0.0223,0.0224,0.0193,0.0191,0.019,0,0,0,0,0,0,-0.0173,-0.0142,-0.0129,-0.0128,-0.0097,-0.0053,-0.0047,-0.0025,0.0009,0.001,0.0054,0.0066,0.0098,0.0125,0.0116,0.0171,0.0179,0.0181,0.0151,0.015,0.0149,0.0147,0.0141,0,0,0,0,0,-0.0183,-0.0179,-0.0142,-0.014,-0.0128,-0.0087,-0.0072,-0.0051,-0.0016,-0.0002,0.0035,0.0074,0.011,0.0133,0.0165,0.0198,0.0225,0.0211,0.0209,0.0208,0.0214,0.026,0.0264,0.0227,0.0227,0.0227,0,0,-0.0195,-0.0178,-0.0176,-0.0146,-0.0122,-0.0105,-0.0078,-0.0058,-0.0038,0.0003,0.0037,0.0068,0.0116,0.015,0.0168,0.0175,0.023,0.0209,0.0208,0.0214,0.0261,0.0265,0.0268,0.0227,0.0227,0.0227,0,0,-0.0219,-0.0203,-0.0209,-0.0186,-0.0154,-0.0123,-0.0119,-0.0077,-0.0052,-0.0018,0.0017,0.0054,0.0106,0.0148,0.0174,0.0188,0.0217,0.0193,0.0194,0.0238,0.0241,0.0245,0.027,0.0276,0.0199,0.0199,0.0199,0,-0.0237,-0.0234,-0.0204,-0.0201,-0.0182,-0.0134,-0.0128,-0.0093,-0.0043,-0.0012,-0.0015,0.0075,0.0107,0.0169,0.017,0.0186,0.0208,0.0193,0.0236,0.024,0.0244,0.027,0.0277,0.0197,0.0197,0.0198,0.0198,0,-0.0261,-0.0256,-0.0256,-0.0232,-0.0208,-0.0194,-0.0144,-0.0112,-0.0079,-0.0037,0.002,0.0064,0.0122,0.0134,0.0156,0.0206,0.021,0.0222,0.0237,0.0246,0.0272,0.028,0.0195,0.0196,0.0196,0.0197,0,0,-0.0299,-0.0279,-0.0278,-0.0276,-0.0223,-0.021,-0.0162,-0.0101,-0.0067,-0.002,0.0028,0.0086,0.0115,0.0147,0.0181,0.0217,0.0254,0.0228,0.0231,0.0248,0.0339,0.0315,0.0321,0.0272,0.0274,0.0275,0.0341,0,-0.0322,-0.0339,-0.0304,-0.03,-0.0301,-0.0233,-0.0204,-0.0141,-0.0071,-0.0013,0.0054,0.0099,0.0121,0.0139,0.0184,0.0236,0.0276,0.0235,0.0334,0.0336,0.031,0.033,0.028,0.0347,0.0349,0.035,0.0351,0,-0.0347,-0.0356,-0.037,-0.0346,-0.034,-0.0328,-0.025,-0.021,-0.0099,-0.0051,0.0033,0.0091,0.0163,0.0166,0.0273,0.0243,0.0291,0.0327,0.0331,0.0328,0.0327,0.0342,0.0366,0.0365,0.0364,0.0363,0.0362,0,-0.0399,-0.0392,-0.0409,-0.0401,-0.0371,-0.0357,-0.0327,-0.0227,-0.0195,-0.0066,-0.0036,0.0082,0.0116,0.0203,0.0287,0.0283,0.0392,0.0399,0.0428,0.0426,0.0441,0.0437,0.048,0.048,0.048,0.048,0.0479,0,-0.0428,-0.044,-0.0446,-0.0459,-0.0482,-0.0428,-0.0412,-0.0346,-0.0265,-0.0231,-0.0076,-0.0029,0.0125,0.0215,0.0292,0.0379,0.0403,0.0434,0.0448,0.0423,0.0417,0.0446,0.0441,0.0482,0.0482,0.0481,0.0481,0,-0.047,-0.0472,-0.0503,-0.0506,-0.0512,-0.0528,-0.0506,-0.0485,-0.0394,-0.034,-0.0311,-0.0122,0.0013,0.0159,0.0309,0.0368,0.0463,0.049,0.0445,0.0454,0.0466,0.0459,0.0533,0.0533,0.0533,0.0533,0.0533,0,-0.0484,-0.0511,-0.0561,-0.0597,-0.0602,-0.0621,-0.0634,-0.0565,-0.0531,-0.0403,-0.0385,-0.0221,-0.0091,0.0115,0.0272,0.0445,0.0463,0.051,0.0502,0.0468,0.0475,0.0468,0.0461,0.0532,0.0532,0.0532,0.0532,0,-0.0515,-0.0546,-0.0583,-0.0669,-0.0708,-0.0737,-0.074,-0.0733,-0.0639,-0.0583,-0.0436,-0.0273,-0.0108,0.0103,0.0247,0.0364,0.0481,0.0509,0.051,0.0503,0.0468,0.0473,0.0467,0.0532,0.0532,0.0532,0.0532,0,-0.0534,-0.0584,-0.0651,-0.0719,-0.0785,-0.0814,-0.0811,-0.0763,-0.0725,-0.0579,-0.054,-0.0316,-0.0172,0.0059,0.0182,0.0312,0.0341,0.0366,0.0375,0.0377,0.0315,0.0246,0.0259,0,0,0,0,0,-0.053,-0.0599,-0.0686,-0.0761,-0.0832,-0.0854,-0.0859,-0.0834,-0.0765,-0.0683,-0.0604,-0.0441,-0.0181,-0.0036,0.0087,0.0162,0.0346,0.0307,0.0374,0.0529,0.053,0.0481,0,0,0,0,0,0,-0.0534,-0.062,-0.0689,-0.0782,-0.0831,-0.0886,-0.0885,-0.0841,-0.0768,-0.0682,-0.0531,-0.0438,-0.0175,-0.0261,0.0082,0.0128,0.018,0.044,0.0442,0.0529,0.0529,0.053,0.048,0,0,0,0,0]}]]